{"data":{"norad_id":64906,"intl_designator":"2025-157C","name":"STARLINK-34713","alt_names":[],"object_type":"PAYLOAD","status":"ACTIVE","operator":null,"country":"US","launch_date":"2025-07-26","launch_site_code":"AFETR","launch_vehicle":null,"mission":null,"orbit_class":"UNKNOWN","rcs_meters":null,"size_class":null,"mass_kg":null,"dimensions":null,"purposes":["comms"],"wikipedia_slug":null,"has_3d_model":false,"image_url":null,"decayed_at":null,"tle_current":{"epoch":"2026-05-24T23:23:10.427136Z","epoch_age_seconds":77314,"freshness":"FRESH","line1":"1 64906U 25157C   26144.97442624  .00016498  00000+0  56747-3 0  9999","line2":"2 64906  53.1612 351.3122 0001085  75.2996 284.8125 15.30225681 47750","mean_motion":15.30225681,"eccentricity":0.0001085,"inclination_deg":53.1612,"raan_deg":351.3122,"arg_perigee_deg":75.2996,"mean_anomaly_deg":284.8125,"bstar":0.00056747,"rev_number":4775,"period_min":94.103766384247,"perigee_km":474.39481127475,"apogee_km":475.88197203474,"semimajor_km":6853.2753916547,"source":"CELESTRAK","updated_at":"2026-05-25T13:38:20.619164Z"}}}